BREEZE-M DEB (TANK), 40986

Orbit data source: Space-Track

BREEZE-M DEB (TANK), 40986 is space debris in HEO originally from a launch on Fri, 16 Oct 2015 UTC launched from the Tyuratam Missile And Space Complex (TTMTR). Debris objects in space refer to the collection of defunct objects orbiting the Earth. Examples of debris include non-operational satellites, rocket bodies, and fragments generated from explosions, collisions, or faulty payload assembly.

Loading next visibility...
Identifier
40986, 2015-060C
Orbit
HEO
Country
Flag of CISCIS
Related business
Manufacturer
Khrunichev
Mission
Spacecraft
Bus & Motor
BRIZ TANK, Unknown motor
Mass
~1,000 kg wet, 1,000 kg dry
Launch date (UTC)
2015-10-16 (11 years ago)
Launch vehicle
Unknown
Launch site
Tyuratam Missile And Space Complex (TTMTR)
Object type
Payload
Rocket body
Debris
Shape & HBR
Torus, 2.0 m
Radar Cross Section
8.218 m², Large (>1 m²)

Expand to show TLE details & history
Last TLE update: 2 days ago

TLE from 2 days ago
0 BREEZE-M DEB (TANK)
1 40986U 15060C   26171.32053997  .00000776  00000-0  44083-3 0  9996
2 40986  49.0439 179.1341 6078772 258.7717  31.3264  3.85583947149081
Epoch: 2026-06-20T07:41Z
TLE epoch observation values (Epoch: 2026-06-20T07:41:34.653Z)
Latitude
-0.00007°
Longitude
155.19479°
Altitude
5,914.43 km
Speed
6.454 km/s
True Right ascension
11h 56m 30s
True Declination
0° 00' 00"
Sunlit
Object was in daylight at epoch
Visualization orbit readout
Latitude
Unknown
Longitude
Unknown
Altitude
Unknown
Speed
Unknown
Apparent Right ascension
Unknown
Apparent Declination
Unknown
Sunlit
N/A
Visualization observer readout
Local Sidereal Time
23:08:20
Azimuth
Unknown
Elevation
Unknown
Doppler factor
Unknown
Orbital elements
Apogee altitude
21,244.241 km
Perigee altitude
358.3 km
Semi-major axis
17,179.408 km
Eccentricity
0.60788
Inclination
49.0439°
RAAN
179.1341°
Arg. of periapsis
258.7717°
True anomaly
101.28921°
Mean anomaly
31.3264°
Eccentric anomaly
62.10963°
Mean motion
0.9639 °/min
Orbital period
373.48 mins
BSTAR
0.00044083
Loading maneuver chart data...
Computing Atmospheric mass density...
Loading historical data...
Loading historical data...
Loading historical data...
Loading historical data...
Loading historical data...
Loading historical data...
Loading historical data...
Other satellites on launch #60 in the year 2015 (2015-10-16 UTC)

Documentation

Showing up to 5 results
|